User: anonymous   Login
Location: Oshawa
(43.9000°N, 78.8670°W)
Time: 23:22:08
(UTC-04:00)
Language:

CZ-4C R/B - Orbit

View from above orbital plane
View from above orbital plane
View from above satellite
View from above satellite

Ground track
Ground track

The orbit data is extracted from the following two-line orbital elements,

1 32290U 07055B   15183.82982668  .00004216  00000-0  14092-3 0  9992
2 32290 097.5433 267.2602 0078465 152.1043 319.5146 15.28617194422292
Epoch (UTC): 02 July 2015 19:54:57
Eccentricity: 0.0078465
inclination: 97.5433°
perigee height: 426 km
apogee height: 534 km
right ascension of ascending node: 267.2602°
argument of perigee: 152.1043°
revolutions per day: 15.28617194
mean anomaly at epoch: 319.5146°
orbit number at epoch: 42229

The dashed part of the orbit path shows where the satellite is in the earth's shadow,  

DLR